Location: Newark
(52.4787°S, 179.0532°W)
Time: 08:18:29
(UTC+00:00)

Transit 2A Rocket - Pass Details

Date: 20 November 2019
Orbit: 594 x 909 km, 66.7° (Epoch: 11 December)

Event Time Altitude Azimuth Distance (km) Brightness Sun altitude
Rises 06:19:44 0° 222° (SW) 3,574 9.6 9.9°
Reaches altitude 10° 06:22:23 10° 227° (SW) 2,623 9.3 9.5°
Maximum altitude 06:28:10 44° 297° (WNW) 1,229 6.7 8.7°
Drops below altitude 10° 06:33:39 10° 7° (N) 2,497 7.4 7.9°
Sets 06:36:09 0° 13° (NNE) 3,385 8.0 7.6°
